Moose, Wyoming, United States (83012)
Lat: 43.66N, Lon: 110.72W
Wx Zone: WYZ013
Local Info
Past Weather Observations for Tuesday, May 26, 2015

NOTE: This archive is for the closest National Weather Service station to Moose. Information may differ from the station used for current weather conditions.

Click here for Long-term Archive

Time Weather Temperature Dewpoint Humidity Pressure Winds Precip Visibility
23:55
Partly Cloudy
39°F / 4°C 39°F / 4°C 100% 30.12 in
(1020 mb)
Calm - 10SM
23:35
Clear
39°F / 4°C 39°F / 4°C 100% 30.12 in
(1020 mb)
S 3.5 mph
(S 6 kph)
- 10SM
23:15
Clear
39°F / 4°C 39°F / 4°C 100% 30.09 in
(1019 mb)
Calm - 10SM
22:55
Clear
41°F / 5°C 41°F / 5°C 100% 30.09 in
(1019 mb)
Calm - 10SM
22:35
Clear
41°F / 5°C 41°F / 5°C 100% 30.09 in
(1019 mb)
Calm - 10SM
22:15
Clear
43°F / 6°C 43°F / 6°C 100% 30.09 in
(1019 mb)
S 3.5 mph
(S 6 kph)
- 10SM
21:55
Clear
43°F / 6°C 43°F / 6°C 100% 30.09 in
(1019 mb)
SSE 3.5 mph
(SSE 6 kph)
- 10SM
21:35
Clear
46°F / 8°C 43°F / 6°C 87% 30.09 in
(1019 mb)
Calm - 10SM
21:15
Partly Cloudy
46°F / 8°C 43°F / 6°C 87% 30.09 in
(1019 mb)
Calm - 10SM
20:55
Overcast
46°F / 8°C 45°F / 7°C 93% 30.09 in
(1019 mb)
ENE 3.5 mph
(ENE 6 kph)
- 10SM
20:35
Overcast
46°F / 8°C 43°F / 6°C 87% 30.09 in
(1019 mb)
Calm - 10SM
20:15
Mostly Cloudy
46°F / 8°C 45°F / 7°C 93% 30.09 in
(1019 mb)
Calm - 10SM
19:55
Mostly Cloudy
46°F / 8°C 43°F / 6°C 87% 30.09 in
(1019 mb)
Calm - 10SM
18:55
Partly Cloudy
48°F / 9°C 43°F / 6°C 82% 30.09 in
(1019 mb)
Calm - 10SM
17:54
Partly Cloudy
50°F / 10°C 43°F / 6°C 76% 30.09 in
(1019 mb)
S 4.6 mph
(S 7 kph)
- 10SM
16:55
Partly Cloudy
Showers In Vicinity
50°F / 10°C 43°F / 6°C 76% 30.09 in
(1019 mb)
S 6.9 mph
(S 11 kph)
- 10SM
15:51
Mostly Cloudy
Showers In Vicinity
48°F / 9°C 45°F / 7°C 87% 30.09 in
(1019 mb)
S 8.1 mph
(S 13 kph)
- 10SM
14:51
Overcast
Showers In Vicinity
48°F / 9°C 46°F / 8°C 94% 30.09 in
(1019 mb)
SE 9.2 mph
(SE 15 kph)
- 10SM
13:51
Overcast
Light Rain
48°F / 9°C 45°F / 7°C 87% 30.09 in
(1019 mb)
SW 4.6 mph
(SW 7 kph)
- 6SM
12:51
Overcast
Showers In Vicinity
52°F / 11°C 41°F / 5°C 67% 30.06 in
(1018 mb)
SSW 10.4 mph
(SSW 17 kph)
- 10SM
11:51
Mostly Cloudy
Showers In Vicinity
57°F / 14°C 43°F / 6°C 59% 30.06 in
(1018 mb)
SW 12.7 mph
(SW 20 kph)
- 10SM
10:47
Mostly Cloudy
57°F / 14°C 45°F / 7°C 63% 30.06 in
(1018 mb)
SSE 11.5 mph
(SSE 19 kph)
- 10SM
10:00
Mostly Cloudy
54°F / 12°C 45°F / 7°C 72% 30.06 in
(1018 mb)
S 5.8 mph
(S 9 kph)
- 10SM
08:51
Overcast
48°F / 9°C 43°F / 6°C 82% 30.09 in
(1019 mb)
Calm - 10SM
07:51
Overcast
46°F / 8°C 43°F / 6°C 87% 30.09 in
(1019 mb)
Calm - 10SM
06:52
Mostly Cloudy
45°F / 7°C 43°F / 6°C 93% 30.09 in
(1019 mb)
Calm - 10SM
05:49
Mostly Cloudy
43°F / 6°C 43°F / 6°C 100% 30.06 in
(1018 mb)
Calm - 10SM
05:35
Overcast
45°F / 7°C 43°F / 6°C 93% 30.06 in
(1018 mb)
Calm - 10SM
05:15
Overcast
43°F / 6°C 41°F / 5°C 93% 30.06 in
(1018 mb)
NW 3.5 mph
(NW 6 kph)
- 10SM
04:55
Overcast
43°F / 6°C 43°F / 6°C 100% 30.06 in
(1018 mb)
Calm - 10SM
04:35
Overcast
43°F / 6°C 41°F / 5°C 93% 30.06 in
(1018 mb)
NNW 3.5 mph
(NNW 6 kph)
- 10SM
04:15
Overcast
45°F / 7°C 43°F / 6°C 93% 30.06 in
(1018 mb)
N 3.5 mph
(N 6 kph)
- 10SM
03:55
Overcast
45°F / 7°C 43°F / 6°C 93% 30.06 in
(1018 mb)
NE 3.5 mph
(NE 6 kph)
- 10SM
03:35
Overcast
45°F / 7°C 43°F / 6°C 93% 30.06 in
(1018 mb)
Calm - 10SM
03:15
Overcast
43°F / 6°C 43°F / 6°C 100% 30.04 in
(1017 mb)
Calm - 10SM
02:55
Overcast
43°F / 6°C 43°F / 6°C 100% 30.04 in
(1017 mb)
Calm 0.01 in
(0.25 mm)
8SM
02:35
Overcast
43°F / 6°C 41°F / 5°C 93% 30.04 in
(1017 mb)
Calm - 10SM
02:15
Overcast
43°F / 6°C 41°F / 5°C 93% 30.04 in
(1017 mb)
Calm - 10SM
01:55
Overcast
43°F / 6°C 41°F / 5°C 93% 30.04 in
(1017 mb)
Calm - 10SM
01:35
Overcast
45°F / 7°C 43°F / 6°C 93% 30.06 in
(1018 mb)
Calm - 10SM
01:15
Mostly Cloudy
43°F / 6°C 39°F / 4°C 87% 30.06 in
(1018 mb)
Calm - 10SM
00:55
Clear
43°F / 6°C 41°F / 5°C 93% 30.06 in
(1018 mb)
Calm - 10SM
00:35
Partly Cloudy
45°F / 7°C 41°F / 5°C 87% 30.06 in
(1018 mb)
Calm - 10SM
00:15
Mostly Cloudy
45°F / 7°C 41°F / 5°C 87% 30.06 in
(1018 mb)
E 3.5 mph
(E 6 kph)
- 10SM
Time Weather Temperature Dewpoint Humidity Pressure Winds Precip Visibility


Weather for websites

WeatherForYou.com, LLC is not responsible for any damages or problems caused by this service. Current weather conditions are obtained from the closest station including government and personal stations which may have varying degrees of accuracy. Weather forecasts are derived from the NOAA NDFD. Like all things, this site belongs to Jesus Christ... He just trusts us to maintain it. If you have any questions or comments email webmaster@weatherforyou.com

Copyright © 2015, WeatherForYou.com LLC. All rights reserved.